EW5495 Weather Reports


time (UTC)temp
F
wind
direction
speed
knots
gust
knots
rain 1hr
in
rain 24hr
in
rain mn
in
humidity
%
barometer
mb
20260505023953 79 291 2.6 7.8 0.00 0.00 0.00 66 1017.1
20260505022952 79 332 2.6 5.2 0.00 0.00 0.00 65 1017.5
20260505021953 79 99 1.7 4.3 0.00 0.00 0.00 67 1017.5
20260505020951 78 318 3.5 5.2 0.00 0.00 0.00 69 1017.9
20260505015952 78 303 0.9 5.2 0.00 0.00 0.00 70 1017.6
20260505014952 78 290 2.6 4.3 0.00 0.00 0.00 70 1018.0
20260505013950 77 327 2.6 7.0 0.00 0.00 0.00 70 1018.1
20260505012951 77 328 3.5 5.2 0.00 0.00 0.00 70 1018.2
20260505011953 77 227 0.9 5.2 0.00 0.00 0.00 71 1018.4
20260505010950 78 190 0.9 7.0 0.00 0.00 0.00 73 1018.6
20260505005951 77 266 1.7 5.2 0.00 0.00 0.00 74 1019.0
20260505003949 76 274 2.6 7.0 0.00 0.00 0.00 79 1019.2
20260505002952 74 290 1.7 4.3 0.00 0.00 0.00 80 1019.2
20260505001951 74 255 0.9 7.0 0.00 0.00 0.00 80 1019.5
20260505000949 74 188 0.9 7.0 0.00 0.00 0.00 83 1019.4
20260504235950 74 246 1.7 4.3 0.00 0.00 0.00 84 1019.6
20260504234948 73 260 2.6 5.2 0.00 0.00 0.00 86 1019.6
20260504233949 72 242 1.7 7.0 0.00 0.00 0.00 88 1019.7
20260504231000 69 232 2.6 7.0 0.00 0.00 0.00 92 1020.0
20260504225946 69 274 2.6 7.0 0.00 0.00 0.00 92 1019.9
20260504224948 68 231 1.7 4.3 0.00 0.00 0.00 92 1019.9
20260504223947 68 239 0.9 4.3 0.00 0.01 0.00 92 1019.9
20260504222948 68 225 1.7 7.0 0.00 0.01 0.00 92 1020.0
20260504220948 67 251 0.9 1.7 0.00 0.01 0.00 92 1020.0
20260504215947 67 251 0.0 0.9 0.00 0.01 0.00 92 1019.8
20260504214947 66 251 0.0 0.9 0.00 0.01 0.00 92 1019.7
20260504213945 66 251 0.9 1.7 0.00 0.01 0.00 92 1019.7
20260504212944 66 251 0.9 1.7 0.00 0.01 0.00 92 1019.6
20260504211945 65 251 0.0 1.7 0.00 0.01 0.00 92 1019.6
20260504204944 65 245 1.7 3.5 0.00 0.03 0.00 92 1019.5
20260504202945 64 245 1.7 3.5 0.00 0.03 0.00 92 1019.2
20260504201945 64 246 2.6 7.0 0.00 0.03 0.00 92 1019.2
20260504200943 64 238 1.7 4.3 0.00 0.03 0.00 92 1019.2
20260504195945 64 228 0.9 1.7 0.00 0.03 0.00 92 1019.1
20260504194943 64 228 1.7 3.5 0.00 0.03 0.00 92 1018.8
20260504193943 65 222 1.7 3.5 0.00 0.03 0.00 92 1018.6
20260504192943 65 218 0.9 1.7 0.00 0.03 0.00 92 1018.6
20260504191942 65 217 0.9 1.7 0.00 0.03 0.00 92 1018.5
20260504190942 65 217 0.9 3.5 0.00 0.03 0.00 92 1018.3
20260504185943 65 150 0.9 1.7 0.00 0.03 0.00 92 1018.3
20260504184942 65 149 0.0 0.0 0.00 0.03 0.00 92 1018.4
20260504183941 65 149 0.0 0.0 0.00 0.03 0.00 92 1018.3
20260504182941 65 149 0.0 0.0 0.00 0.03 0.00 92 1018.4
20260504181941 64 149 0.0 0.0 0.00 0.03 0.00 92 1018.4
20260504180942 64 149 0.0 0.0 0.00 0.03 0.00 92 1018.1
20260504175940 64 149 0.0 0.0 0.00 0.03 0.00 92 1018.0
20260504174942 64 149 0.0 0.0 0.00 0.03 0.00 92 1017.9
20260504172940 65 149 0.0 0.0 0.00 0.03 0.00 92 1018.2
20260504171941 65 149 0.0 0.0 0.00 0.03 0.00 91 1018.1
20260504170941 65 149 0.0 0.0 0.00 0.03 0.00 92 1018.1
20260504150937 66 102 1.7 3.5 0.00 0.03 0.00 91 1018.7
20260504140935 66 99 0.0 0.0 0.00 0.03 0.00 91 1019.0
20260504045923 79 94 2.6 7.8 0.00 0.03 0.03 65 1017.9
20260504043922 80 122 3.5 7.0 0.00 0.03 0.03 64 1017.7
20260504042925 80 48 2.6 7.0 0.00 0.03 0.03 65 1017.7
20260504041922 79 120 0.9 5.2 0.00 0.03 0.03 65 1017.7
20260504040922 79 68 1.7 8.7 0.00 0.03 0.03 65 1017.7
20260504035923 80 140 4.3 7.8 0.00 0.03 0.03 63 1017.8
20260504034921 81 158 4.3 8.7 0.00 0.03 0.03 62 1017.9
20260504033920 81 106 1.7 5.2 0.00 0.03 0.03 64 1017.8
20260504032922 80 39 2.6 7.0 0.00 0.03 0.03 65 1018.0
20260504031920 78 118 1.7 4.3 0.00 0.03 0.03 67 1018.1
20260504030921 78 112 0.0 4.3 0.00 0.03 0.03 69 1018.2
20260504025921 79 113 1.7 4.3 0.00 0.03 0.03 67 1018.4
20260504024921 78 48 1.7 4.3 0.00 0.03 0.03 67 1018.4